ONEWEB-0065, 45164

Orbit data source: Space-Track

ONEWEB-0065, 45164 is a payload satellite owned by One Web (UK) in LEO that was launched on Thu, 06 Feb 2020 UTC via a SOYUZ-2-1B launch vehicle from the Tyuratam Missile And Space Complex (TTMTR). Payload-class satellites include a variety of spacecraft equipped with specific instruments for various scientific and technological missions. These include communications satellites like Starlink; space stations such as the ISS; scientific satellites like the Hubble; Earth observation satellites from companies like Planet Labs, Umbra, and HawkEye 360; GPS; miniature CubeSats for education and research; and military/defense satellites.

Loading next visibility...
Identifier
45164, 2020-008AK
Orbit
LEO
Last TLE update
14 hours ago
Origin
Manufacturer
One Web
Mission
Operational Commercial Communications
Bus & Motor
ARROW, Unknown motor
Mass
148 kg wet, ~140 kg dry
Launch date (UTC)
2020-02-06 (5 years ago)
Launch vehicle
SOYUZ-2-1B
Launch site
Tyuratam Missile And Space Complex (TTMTR)
Object type
Payload
Rocket body
Debris
Shape & HBR
Trap Box + 2 Pan, 5 m
Radar Cross Section
2.957 m², Large (>1 m²)

Expand to show TLE details & history

TLE from 14 hours ago
0 ONEWEB-0065
1 45164U 20008AK  25181.81496463 -.00000558  00000-0 -16355-2 0  9990
2 45164  87.8830 106.3619 0001690  72.7881 287.3431 13.10370834261862
Epoch: 2025-06-30T19:33Z
TLE epoch observation values (Epoch: 2025-06-30T19:33:32.944Z)
Latitude
-0.00002°
Longitude
-106.14473°
Altitude
1,224.23 km
Speed
7.243 km/s
True Right ascension
07h 05m 26s
True Declination
0° 00' 00"
Sunlit
Object was in daylight at epoch
Visualization orbit readout
Latitude
-25.24052°
Longitude
74.73373°
Altitude
1,232.024 km
Speed
7.237 km/s
Apparent Right ascension
16h 19m 49s
Apparent Declination
-64° 20' 44"
Sunlit
Object is in full shadow
Visualization observer readout
Local Sidereal Time
21:04:05
Azimuth
207.655° SW
Elevation
-28.078°
Doppler factor
1
Orbital elements
Apogee altitude
1,220.129 km
Perigee altitude
1,217.561 km
Semi-major axis
7,596.982 km
Eccentricity
0.00017
Inclination
87.883°
RAAN
106.3619°
Arg. of periapsis
72.7881°
True anomaly
Unknown
Mean anomaly
287.3431°
Eccentric anomaly
Unknown
Mean motion
3.27779 °/min
Orbital period
109.83 mins
BSTAR
-0.0016355
Loading maneuver chart data...
Loading SW <> Apogee altitude chart data...
Loading historical data...
Loading historical data...
Loading historical data...
Loading historical data...
Loading historical data...
Loading historical data...
Loading historical data...

ONEWEB-0065 Visibility forecast

Observer location: undefined°, undefined°

Span
Click to sort rows by Start time (UTC) header in descending order
Start Az.
Max El. time (UTC)
Max El. Az.
Max El.
End time (UTC)
End Az.
7 mins2025-07-01 17:42:48.704Z101.197° ESE2025-07-01 17:45:48.704Z75.357° E15.434°2025-07-01 17:49:48.704Z40.631° NE
13 mins2025-07-01 19:28:48.704Z180.768° SSW2025-07-01 19:34:48.704Z211.759° SW44.75°2025-07-01 19:41:48.704Z359.565° N
5 mins2025-07-01 21:23:48.704Z268.487° W2025-07-01 21:25:48.704Z285.667° WNW13.613°2025-07-01 21:28:48.704Z311.514° NW
4 mins2025-07-02 05:12:48.704Z57.857° ENE2025-07-02 05:13:48.704Z66.222° ENE11.967°2025-07-02 05:16:48.704Z90.938° ESE
12 mins2025-07-02 06:59:48.704Z3.727° NNE2025-07-02 07:05:48.704Z122.794° SE44.134°2025-07-02 07:11:48.704Z174.915° S
7 mins2025-07-02 08:51:48.704Z312.307° NW2025-07-02 08:54:48.704Z283.782° WNW17.254°2025-07-02 08:58:48.704Z249.483° W
|